Location: Eastchurch
(51.4000°N, 0.8667°E)
Time: 20:20:08
(UTC+00:00)

Resurs 01 Rocket - Pass Details

Date: 19 January 2026
Orbit: 628 x 635 km, 97.7° (Epoch: 16 February)

Event Time Altitude Azimuth Distance (km) Brightness Sun altitude
Rises 19:37:26 0° 193° (SSW) 2,904 5.1 -29.6°
Reaches altitude 10° 19:39:50 10° 204° (SSW) 2,002 4.3 -30.0°
Maximum altitude 19:43:40 30° 265° (W) 1,141 3.4 -30.6°
Drops below altitude 10° 19:47:33 10° 327° (NNW) 2,019 4.6 -31.2°
Sets 19:49:59 0° 339° (NNW) 2,932 5.4 -31.6°
